Location: Cheyres
(46.8153°N, 6.7877°E)
Time: 04:14:49
(UTC+00:00)

Nadezhda 1 Rocket - Pass Details

Date: 11 May 2021
Orbit: 940 x 1006 km, 83.0° (Epoch: 18 June)

Event Time Altitude Azimuth Distance (km) Brightness Sun altitude
Exits shadow 21:19:49 29° 169° (S) 1,741 4.8 -18.8°
Maximum altitude 21:23:13 68° 95° (E) 1,054 4.0 -19.1°
Drops below altitude 10° 21:29:25 10° 13° (NNE) 2,727 7.0 -19.7°
Sets 21:31:55 0° 11° (NNE) 3,669 7.8 -19.9°
